This demonstration page uses our WeatherBlox Daily Observations layout. Learn more.

36.17497, -115.13722

Hourly Observations for June 1, 2015

Temp ( °F °C ) Dew Point ( °F °C ) Humidity (%) Winds ( mph kmh ) Pressure ( in mb ) Visibility ( mi km ) Precip ( " mm )
12:53 am 00:53 Clear 85 29.4 26 -3.3 12 12 SSW 9 15 29.75 1007 10 16.0934 0 0
1:53 am 01:53 Clear 79 26.1 27 -2.8 15 15 ESE 7 11 29.75 1008 10 16.0934 0 0
2:53 am 02:53 Clear 82 27.8 28 -2.2 14 14 SE 7 11 29.75 1008 10 16.0934 0 0
3:53 am 03:53 Clear 79 26.1 29 -1.7 16 16 SE 7 11 29.76 1008 10 16.0934 0 0
4:53 am 04:53 Clear 78 25.6 29 -1.7 16 16 SSE 8 13 29.76 1008 10 16.0934 0 0
5:53 am 05:53 Sunny 79 26.1 30 -1.1 17 17 SSW 9 15 29.77 1008 10 16.0934 0 0
6:53 am 06:53 Sunny 81 27.2 30 -1.1 16 16 SSW 14 22 29.78 1008 10 16.0934 0 0
7:53 am 07:53 Sunny 83 28.3 30 -1.1 15 15 VRB 6 9 29.8 1009 10 16.0934 0 0
8:53 am 08:53 Sunny 87 30.6 27 -2.8 11 11 SSW 17 28 29.8 1009 10 16.0934 0 0
9:53 am 09:53 Sunny 88 31.1 26 -3.3 10 10 SSE 17 28 29.81 1010 10 16.0934 0 0
10:53 am 10:53 Sunny 92 33.3 20 -6.7 7 7 S 28 44 29.8 1009 10 16.0934 0 0
11:53 am 11:53 Sunny 93 33.9 16 -8.9 6 6 SSW 16 26 29.8 1009 10 16.0934 0 0
12:53 pm 12:53 Sunny 95 35 9 -12.8 4 4 SSW 23 37 29.79 1009 10 16.0934 0 0
1:53 pm 13:53 Sunny 94 34.4 4 -15.6 3 3 SW 22 35 29.78 1009 10 16.0934 0 0
2:53 pm 14:53 Sunny 96 35.6 2 -16.7 3 3 SSW 18 30 29.76 1008 10 16.0934 0 0
3:53 pm 15:53 Sunny 96 35.6 -6 -21.1 2 2 W 17 28 29.76 1008 10 16.0934 0 0
4:53 pm 16:53 Sunny 102 39 16 -9 4 4 S 12 19 29.53 1000 10 16.0934 0 0
5:53 pm 17:53 Sunny 94 34.4 0 -17.8 3 3 SW 17 28 29.75 1007 10 16.0934 0 0
6:53 pm 18:53 Sunny 92 33.3 4 -15.6 3 3 SW 21 33 29.74 1007 10 16.0934 0 0
7:53 pm 19:53 Clear 90 32.2 11 -11.7 5 5 SW 20 31 29.75 1007 10 16.0934 0 0
8:53 pm 20:53 Clear 88 31.1 15 -9.4 7 7 SW 15 24 29.76 1008 10 16.0934 0 0
9:53 pm 21:53 Clear 86 30 17 -8.3 8 8 WSW 12 19 29.78 1008 10 16.0934 0 0
10:53 pm 22:53 Clear 84 28.9 19 -7.2 9 9 WSW 15 24 29.77 1008 10 16.0934 0 0
11:53 pm 23:53 Clear 81 27.2 23 -5 12 12 S 13 20 29.79 1009 10 16.0934 0 0

Powered by AerisWeather